{"data":{"norad_id":51977,"epoch":"2026-05-25T03:00:35.148384Z","epoch_age_seconds":64372,"freshness":"FRESH","line1":"1 51977U 22025X   26145.12540681  .00000617  00000+0  56865-4 0  9992","line2":"2 51977  53.2134  35.9944 0001673  82.1069 278.0113 15.08836452232872","mean_motion":15.08836452,"eccentricity":0.0001673,"inclination_deg":53.2134,"raan_deg":35.9944,"arg_perigee_deg":82.1069,"mean_anomaly_deg":278.0113,"bstar":5.6865e-5,"rev_number":23287,"period_min":95.437779097346,"perigee_km":538.59687059854,"apogee_km":540.91159700537,"semimajor_km":6917.891233802,"source":"CELESTRAK","updated_at":"2026-05-25T13:38:16.994900Z"}}